Weather History for Louisville, KY

Change the Weather History Date:

Saturday, September 7, 2013

  Actual Average Record
Temperature  
Mean Temperature 76 °F 74 °F  
Max Temperature 87 °F 85 °F 101 °F (1899)
Min Temperature 65 °F 64 °F 46 °F (1962)
Degree Days  
Heating Degree Days 0 0  
Month to date heating degree days 0 0  
Since 1 July heating degree days 0 0  
Cooling Degree Days 11 10  
Month to date cooling degree days 80 73  
Year to date cooling degree days 1420 1430  
Growing Degree Days 26 (Base 50)    
Moisture  
Dew Point 64 °F    
Average Humidity 67    
Maximum Humidity 87    
Minimum Humidity 46    
Precipitation  
Precipitation 0.00 in 0.09 in 1.78 in (1917)
Month to date precipitation 0.71 0.63  
Year to date precipitation 32.52 31.85  
Snow  
Snow 0.00 in 0.00 in - ()
Month to date snowfall 0.0 0.0  
Since 1 July snowfall 0.0 0.0  
Since 1 September snowfall 0.0 0.0  
Snow Depth 0.00 in    
Sea Level Pressure  
Sea Level Pressure 30.03 in    
Wind  
Wind Speed 4 mph (South)    
Max Wind Speed 13 mph    
Max Gust Speed 18 mph    
Visibility 10 miles    
Events      
T = Trace of Precipitation, MM = Missing Value Source: NWS Daily Summary

Daily Weather History Graph

Daily Weather History Graph

Search for Another Location

Airport:

Trip Planner

Search our weather history database for the weather conditions in past years. The results will help you decide how hot, cold, wet, or windy it might be!

Date:

Astronomy

Sep. 07, 2013 Rise Set
Actual Time 7:17 AM EDT 8:03 PM EDT
Civil Twilight 6:51 AM EDT 8:29 PM EDT
Nautical Twilight 6:19 AM EDT 9:01 PM EDT
Astronomical Twilight 5:47 AM EDT 9:33 PM EDT
Moon 9:28 AM EDT (9/7) 9:04 PM EDT (9/7)
Length of Visible Light 13h 38m
Length of Day
12h 45m
Waxing Crescent, 5% of the Moon is Illuminated
Sep 7
Waxing Crescent
Sep 12
First Quarter
Sep 19
Full
Sep 26
Last Quarter
Oct 4
New

Hourly Weather History & Observations

Time (EDT) Temp. Heat Index Dew Point Humidity Pressure Visibility Wind Dir Wind Speed Gust Speed Precip Events Conditions
12:56 AM 73.0 °F - 60.1 °F 64% 30.08 in 10.0 mi ESE 3.5 mph - N/A   Partly Cloudy
1:56 AM 71.1 °F - 61.0 °F 70% 30.09 in 10.0 mi East 3.5 mph - N/A   Partly Cloudy
2:56 AM 70.0 °F - 61.0 °F 73% 30.07 in 10.0 mi East 3.5 mph - N/A   Scattered Clouds
3:56 AM 69.1 °F - 61.0 °F 75% 30.08 in 10.0 mi Calm Calm - N/A   Scattered Clouds
4:56 AM 68.0 °F - 60.1 °F 76% 30.07 in 10.0 mi East 3.5 mph - N/A   Clear
5:56 AM 66.9 °F - 60.1 °F 79% 30.07 in 10.0 mi ESE 3.5 mph - N/A   Clear
6:56 AM 64.9 °F - 61.0 °F 87% 30.08 in 10.0 mi Calm Calm - N/A   Clear
7:56 AM 66.0 °F - 62.1 °F 87% 30.09 in 10.0 mi SE 3.5 mph - N/A   Partly Cloudy
8:56 AM 70.0 °F - 62.1 °F 76% 30.08 in 10.0 mi Calm Calm - N/A   Partly Cloudy
9:56 AM 73.9 °F - 62.1 °F 66% 30.09 in 10.0 mi SSW 3.5 mph - N/A   Partly Cloudy
10:56 AM 79.0 °F - 64.9 °F 62% 30.09 in 10.0 mi Variable 3.5 mph - N/A   Scattered Clouds
11:56 AM 82.0 °F 83.8 °F 64.9 °F 56% 30.07 in 10.0 mi Variable 5.8 mph - N/A   Mostly Cloudy
12:56 PM 84.9 °F 86.6 °F 64.9 °F 51% 30.06 in 10.0 mi Variable 6.9 mph - N/A   Mostly Cloudy
1:56 PM 86.0 °F 87.3 °F 64.0 °F 48% 30.04 in 10.0 mi SSW 4.6 mph - N/A   Mostly Cloudy
2:56 PM 86.0 °F 87.3 °F 64.0 °F 48% 30.02 in 10.0 mi Variable 6.9 mph - N/A   Overcast
3:56 PM 86.0 °F 87.3 °F 64.0 °F 48% 29.98 in 10.0 mi SW 9.2 mph - N/A   Mostly Cloudy
4:56 PM 87.1 °F 88.3 °F 64.0 °F 46% 29.97 in 10.0 mi SW 9.2 mph - N/A   Partly Cloudy
5:56 PM 86.0 °F 87.6 °F 64.9 °F 49% 29.96 in 10.0 mi WSW 9.2 mph - N/A   Mostly Cloudy
6:56 PM 84.9 °F 86.6 °F 64.9 °F 51% 29.96 in 10.0 mi WSW 5.8 mph - N/A   Mostly Cloudy
7:56 PM 82.0 °F 84.1 °F 66.0 °F 58% 29.96 in 10.0 mi West 5.8 mph - N/A   Mostly Cloudy
8:56 PM 80.1 °F 82.1 °F 66.0 °F 62% 29.97 in 10.0 mi SW 5.8 mph - N/A   Mostly Cloudy
9:56 PM 79.0 °F - 66.0 °F 64% 29.98 in 10.0 mi SW 3.5 mph - N/A   Mostly Cloudy
10:56 PM 77.0 °F - 68.0 °F 74% 29.97 in 10.0 mi Calm Calm - N/A   Scattered Clouds
11:56 PM 75.9 °F - 68.0 °F 76% 29.97 in 10.0 mi SW 3.5 mph - N/A   Mostly Cloudy